De Ridder, LA

3:11 AM CDT on May 26, 2017 (GMT -0500)
Beauregard Parish

Weather History for KDRI - March, 2013

Change the Weather History Date:

Monday, March 4, 2013

  Actual Average (KPOE) Record (KPOE)
Temperature  
Mean Temperature 58 °F -  
Max Temperature 73 °F 64 °F 79 °F (2015)
Min Temperature 44 °F 44 °F 21 °F (2002)
Degree Days  
Heating Degree Days 6    
Growing Degree Days 8 (Base 50)    
Moisture  
Dew Point 49 °F    
Average Humidity 68    
Maximum Humidity 87    
Minimum Humidity 47    
Precipitation  
Precipitation 0.00 in - - ()
Sea Level Pressure  
Sea Level Pressure 29.93 in    
Wind  
Wind Speed 12 mph (South)    
Max Wind Speed 29 mph    
Max Gust Speed 38 mph    
Visibility 10 miles    
Events      
Averages and records for this station are not official NWS values.
T = Trace of Precipitation, MM = Missing Value Source: NWS Daily Summary

Daily Weather History Graph

Daily Weather History Graph

Search for Another Location

Airport or City:

Trip Planner

Search our weather history database for the weather conditions in past years. The results will help you decide how hot, cold, wet, or windy it might be!

Date:

Astronomy

Mar. 04, 2013 Rise Set
Actual Time 6:36 AM CST 6:14 PM CST
Civil Twilight 6:11 AM CST 6:38 PM CST
Nautical Twilight 5:44 AM CST 7:06 PM CST
Astronomical Twilight 5:16 AM CST 7:34 PM CST
Moon 12:30 AM CST (3/4) 11:13 AM CST (3/4)
Length of Visible Light 12h 26m
Length of Day
11h 38m
Waning Gibbous, 52% of the Moon is Illuminated
Mar 4
Waning Gibbous
Mar 4
Last Quarter
Mar 11
New
Mar 19
First Quarter
Mar 27
Full

Hourly Weather History & Observations

Time (CST) Temp. Windchill Dew Point Humidity Pressure Visibility Wind Dir Wind Speed Gust Speed Precip Events Conditions
12:15 AM 44.6 °F 41.4 °F 35.6 °F 71% 30.07 in 10.0 mi SSE 5.8 mph - N/A   Clear
12:35 AM 44.6 °F 42.2 °F 35.6 °F 71% 30.08 in 10.0 mi SSE 4.6 mph - N/A   Clear
1:55 AM 44.6 °F 41.4 °F 37.4 °F 76% 30.05 in 10.0 mi SE 5.8 mph - N/A   Clear
2:15 AM 44.6 °F 40.7 °F 37.4 °F 76% 30.04 in 10.0 mi SE 6.9 mph - N/A   Clear
2:35 AM 46.4 °F 42.9 °F 37.4 °F 71% 30.04 in 10.0 mi SE 6.9 mph - N/A   Clear
2:55 AM 44.6 °F 41.4 °F 37.4 °F 76% 30.03 in 10.0 mi SE 5.8 mph - N/A   Clear
3:15 AM 44.6 °F 41.4 °F 39.2 °F 81% 30.03 in 10.0 mi SSE 5.8 mph - N/A   Clear
3:35 AM 44.6 °F 40.2 °F 39.2 °F 81% 30.02 in 10.0 mi SSE 8.1 mph - N/A   Clear
3:55 AM 46.4 °F 41.9 °F 41.0 °F 81% 30.01 in 10.0 mi SSE 9.2 mph - N/A   Clear
4:15 AM 46.4 °F 41.9 °F 41.0 °F 81% 30.00 in 10.0 mi SSE 9.2 mph - N/A   Clear
4:35 AM 46.4 °F 41.9 °F 42.8 °F 87% 29.99 in 10.0 mi SSE 9.2 mph - N/A   Clear
4:55 AM 48.2 °F - 42.8 °F 82% 29.99 in 10.0 mi SSE 6.9 mph - N/A   Clear
5:15 AM 48.2 °F - 42.8 °F 82% 29.99 in 10.0 mi SSE 8.1 mph - N/A   Clear
5:35 AM 48.2 °F - 42.8 °F 82% 29.99 in 10.0 mi SSE 8.1 mph - N/A   Clear
5:55 AM 50.0 °F - 44.6 °F 82% 29.98 in 10.0 mi SSE 9.2 mph - N/A   Clear
6:15 AM 50.0 °F - 44.6 °F 82% 29.97 in 10.0 mi SSE 11.5 mph - N/A   Clear
6:35 AM 50.0 °F - 44.6 °F 82% 29.98 in 10.0 mi SSE 11.5 mph - N/A   Clear
6:55 AM 50.0 °F - 44.6 °F 82% 29.98 in 10.0 mi SSE 6.9 mph - N/A   Clear
7:15 AM 50.0 °F - 44.6 °F 82% 29.99 in 10.0 mi SSE 6.9 mph - N/A   Clear
7:35 AM 51.8 °F - 46.4 °F 82% 30.00 in 10.0 mi SSE 6.9 mph - N/A   Clear
7:55 AM 51.8 °F - 46.4 °F 82% 30.00 in 10.0 mi SSE 8.1 mph - N/A   Clear
8:35 AM 57.2 °F - 50.0 °F 77% 29.99 in 10.0 mi SSE 11.5 mph - N/A   Clear
9:15 AM 62.6 °F - 51.8 °F 68% 29.97 in 10.0 mi SSE 15.0 mph 21.9 mph N/A   Clear
9:55 AM 64.4 °F - 51.8 °F 64% 29.97 in 10.0 mi South 27.6 mph 31.1 mph N/A   Scattered Clouds
10:15 AM 66.2 °F - 50.0 °F 56% 29.97 in 10.0 mi South 23.0 mph 28.8 mph N/A   Mostly Cloudy
10:35 AM 68.0 °F - 51.8 °F 56% 29.97 in 10.0 mi SSW 20.7 mph 31.1 mph N/A   Overcast
10:55 AM 68.0 °F - 51.8 °F 56% 29.97 in 10.0 mi South 23.0 mph 33.4 mph N/A   Mostly Cloudy
11:15 AM 68.0 °F - 51.8 °F 56% 29.96 in 10.0 mi South 20.7 mph 31.1 mph N/A   Mostly Cloudy
11:35 AM 69.8 °F - 51.8 °F 53% 29.96 in 10.0 mi South 23.0 mph 34.5 mph N/A   Overcast
11:55 AM 69.8 °F - 51.8 °F 53% 29.95 in 10.0 mi South 24.2 mph 29.9 mph N/A   Mostly Cloudy
12:15 PM 69.8 °F - 51.8 °F 53% 29.93 in 10.0 mi SSW 25.3 mph 36.8 mph N/A   Mostly Cloudy
12:55 PM 71.6 °F - 51.8 °F 50% 29.91 in 10.0 mi South 19.6 mph 27.6 mph N/A   Mostly Cloudy
1:15 PM 71.6 °F - 51.8 °F 50% 29.90 in 10.0 mi SSW 23.0 mph 33.4 mph N/A   Mostly Cloudy
1:35 PM 71.6 °F - 51.8 °F 50% 29.89 in 10.0 mi South 23.0 mph 34.5 mph N/A   Mostly Cloudy
1:55 PM 71.6 °F - 51.8 °F 50% 29.88 in 10.0 mi South 25.3 mph 31.1 mph N/A   Mostly Cloudy
2:15 PM 71.6 °F - 51.8 °F 50% 29.88 in 10.0 mi South 21.9 mph 35.7 mph N/A   Mostly Cloudy
2:35 PM 71.6 °F - 51.8 °F 50% 29.87 in 10.0 mi South 19.6 mph 35.7 mph N/A   Mostly Cloudy
2:55 PM 71.6 °F - 51.8 °F 50% 29.87 in 10.0 mi South 23.0 mph 32.2 mph N/A   Mostly Cloudy
3:15 PM 73.4 °F - 51.8 °F 47% 29.85 in 10.0 mi South 18.4 mph 28.8 mph N/A   Scattered Clouds
3:35 PM 71.6 °F - 51.8 °F 50% 29.86 in 10.0 mi South 26.5 mph 32.2 mph N/A   Mostly Cloudy
3:55 PM 69.8 °F - 53.6 °F 56% 29.85 in 10.0 mi South 28.8 mph 38.0 mph N/A   Mostly Cloudy
4:15 PM 69.8 °F - 53.6 °F 56% 29.84 in 10.0 mi South 25.3 mph 33.4 mph N/A   Mostly Cloudy
4:35 PM 69.8 °F - 53.6 °F 56% 29.84 in 10.0 mi South 21.9 mph 32.2 mph N/A   Scattered Clouds
4:55 PM 69.8 °F - 53.6 °F 56% 29.84 in 10.0 mi South 17.3 mph 32.2 mph N/A   Scattered Clouds
5:15 PM 69.8 °F - 51.8 °F 53% 29.85 in 10.0 mi South 19.6 mph 31.1 mph N/A   Scattered Clouds
5:35 PM 68.0 °F - 53.6 °F 60% 29.86 in 10.0 mi South 16.1 mph 23.0 mph N/A   Scattered Clouds
5:55 PM 68.0 °F - 53.6 °F 60% 29.86 in 10.0 mi South 16.1 mph 24.2 mph N/A   Scattered Clouds
6:15 PM 68.0 °F - 53.6 °F 60% 29.86 in 10.0 mi South 18.4 mph 26.5 mph N/A   Mostly Cloudy
6:35 PM 68.0 °F - 53.6 °F 60% 29.86 in 10.0 mi South 12.7 mph 25.3 mph N/A   Scattered Clouds
6:55 PM 68.0 °F - 55.4 °F 64% 29.86 in 10.0 mi South 15.0 mph 20.7 mph N/A   Scattered Clouds
7:15 PM 68.0 °F - 55.4 °F 64% 29.87 in 10.0 mi South 16.1 mph - N/A   Mostly Cloudy
7:35 PM 66.2 °F - 55.4 °F 68% 29.87 in 10.0 mi South 12.7 mph - N/A   Mostly Cloudy
7:55 PM 66.2 °F - 55.4 °F 68% 29.87 in 10.0 mi South 13.8 mph 18.4 mph N/A   Mostly Cloudy
8:35 PM 64.4 °F - 55.4 °F 73% 29.87 in 10.0 mi South 11.5 mph - N/A   Scattered Clouds
8:55 PM 64.4 °F - 55.4 °F 73% 29.88 in 10.0 mi South 11.5 mph - N/A   Scattered Clouds
9:35 PM 64.4 °F - 55.4 °F 73% 29.88 in 10.0 mi South 12.7 mph - N/A   Scattered Clouds
9:55 PM 64.4 °F - 55.4 °F 73% 29.89 in 10.0 mi South 13.8 mph - N/A   Clear
10:15 PM 64.4 °F - 57.2 °F 77% 29.89 in 10.0 mi South 12.7 mph - N/A   Clear
10:35 PM 62.6 °F - 57.2 °F 82% 29.89 in 10.0 mi South 10.4 mph - N/A   Scattered Clouds
10:55 PM 64.4 °F - 57.2 °F 77% 29.89 in 10.0 mi South 12.7 mph 18.4 mph N/A   Scattered Clouds
11:15 PM 62.6 °F - 57.2 °F 82% 29.89 in 10.0 mi South 10.4 mph - N/A   Clear
11:35 PM 62.6 °F - 57.2 °F 82% 29.89 in 10.0 mi South 10.4 mph - N/A   Scattered Clouds
11:55 PM 62.6 °F - 57.2 °F 82% 29.88 in 10.0 mi South 10.4 mph - N/A   Scattered Clouds